星链-35680(STARLINK-35680)

导读

STARLINK-35680是美国于2025年11月22日发射的卫星,属于SpaceX星链星座项目。星链系统旨在为全球提供高速低延迟卫星互联网服务,该卫星加入星座后,进一步扩充了星链网络规模,提升覆盖范围与服务能力,推动全球互联基础设施建设。

Basic Information
目录编号:
66610
目录名称:
STARLINK-35680
国际标识:
2025-270Y
轨道中心:
EARTH
卫星名称:
星链-35680
卫星全名:
星链-35680(STARLINK-35680)
卫星状态:
在轨 (已飞行286 天)
发射日期:
2025-11-22 UTC
国别 :
美国 (US)
星等 :
--
Orbit Information
数据来源 国际轨道数据
星历时间: 2026-09-04T01:21:03+0800
15小时前
查看轨道信息
半长轴: 6861.17km
偏心率: 0.0000855
轨道倾角: 42.999°
近地点辐角 235.047°
升交点赤经 130.748°
平近点角 125.030°
近地点: 482.446km
远地点: 483.62km
周期: 94.266分钟
每日圈数: 15.275855
Detailed Information
固有亮度:
5
最大亮度:
2.5
卫星平台:
Starlink V1.0
覆盖范围:
全球
运营商:
太空探索技术公司
运营商所在国:
美国
制造商(研发单位):
太空探索技术公司
制造商所在国:
美国
使用方式:
暂无
Satellite Introduction
Starlink 计划是 SpaceX 推出的全球卫星互联网项目,通过发射低轨道卫星,为全球尤其是偏远地区提供高速、低延迟的互联网服务。自 2019 年起,Starlink 已部署数千颗卫星,旨在缩小全球数字鸿沟,推动互联网普及。该项目还为军事、航空等行业提供通信支持,带来广泛经济效益。
2D Orbit Map
3D Orbit Map
Orbit Altitude Analysis Chart
Orbit Inclination Analysis Chart
Orbit Comprehensive Analysis Chart
View Comprehensive Chart
Conjunction Data List
Event ID Objects TCA Miss Dist (km) Collision Risk Probability Collision Risk Index (CRI) Action
CDM_260904-162105-549306-661021
2026-09-04T
16:21:48+0000
0.075 km
近距离
1.196599E-3 极高风险 0.97
CDM_260904-071606-429306-661021
2026-09-04T
07:16:53+0000
0.523 km
远距离
8.818598E-5 中风险 0.74
CDM_260905-005905-549306-661021
2026-09-05T
00:59:38+0000
0.853 km
远距离
2.601789E-5 中风险 0.63
CDM_260905-105005-978206-661021
2026-09-05T
10:50:33+0000
0.943 km
远距离
2.528854E-5 中风险 0.63
CDM_260903-042305-386706-661021
2026-09-03T
04:23:12+0000
1.521 km
极远距离
2.771886E-6 低风险 0.44
CDM_260905-091605-978206-661021
2026-09-05T
09:16:24+0000
2.031 km
极远距离
2.158519E-6 低风险 0.42
CDM_260905-005306-049806-661021
2026-09-05T
00:53:44+0000
2.368 km
极远距离
1.888029E-6 低风险 0.41
CDM_260904-232505-549306-661021
2026-09-04T
23:25:29+0000
2.447 km
极远距离
1.121082E-6 低风险 0.36
CDM_260904-144705-549306-661021
2026-09-04T
14:47:39+0000
2.610 km
极远距离
1.008631E-6 低风险 0.35
CDM_260904-175505-549306-661023
2026-09-04T
17:55:57+0000
2.755 km
极远距离
9.328655E-7 极低风险 0.34